User: anonymous   Login
Location: Melbourne
(37.8170°S, 144.9670°E)
Time: 09:16:35
(UTC+11:00)
Language:

CZ-3 R/B - Orbit

View from above orbital plane
View from above orbital plane
View from above satellite
View from above satellite

Ground track
Ground track

The orbit data is extracted from the following two-line orbital elements,

1 29517U 06048B   14351.60277507  .00096809 -17420-6  16883-2 0  5548
2 29517 028.5623 030.7340 5193296 270.8936 328.8177 05.42927054109519
Epoch (UTC): 17 December 2014 14:27:59
Eccentricity: 0.5193296
inclination: 28.5623°
perigee height: 195 km
apogee height: 14397 km
right ascension of ascending node: 30.7340°
argument of perigee: 270.8936°
revolutions per day: 5.42927054
mean anomaly at epoch: 328.8177°
orbit number at epoch: 10951

The dashed part of the orbit path shows where the satellite is in the earth's shadow,  

DLR